EHI
2 10 20 21 16 11 7 4 3 2 3 3 3 2 1 0 0 0 0 0 0 0 0 0 0 0 0 0 0 0 0 0 0 0 0 0 0 0 0 0 0 0 0
7 14 22 22 17 11 6 3 1 1 2 2 2 1 0 0 0 0 0 0 0 0 0 0 0 0 0 0 0 0 0 0 0 0 0 0 0 0 0 0 0 0 0
15 17 20 21 16 9 4 1 0 0 1 1 1 0 0 0 0 0 0 0 0 0 0 0 0 0 0 0 0 0 0 0 0 0 0 0 0 0 0 0 0 0 0
18 17 17 18 13 6 2 0 0 0 0 0 0 0 0 0 0 0 0 0 0 0 0 0 0 0 0 0 0 0 0 0 0 0 0 0 0 0 0 0 0 0 0
15 15 15 14 9 3 0 0 0 0 0 0 0 0 0 0 0 0 0 0 0 0 0 0 0 0 0 0 0 0 0 0 0 0 0 0 0 0 0 0 0 0 0
13 12 11 10 6 2 0 0 0 0 0 0 0 0 0 0 0 0 0 0 0 0 0 0 0 0 0 0 0 0 0 0 0 0 0 0 0 0 0 0 0 0 0
12 10 7 5 4 1 0 0 0 0 0 0 0 0 0 0 0 0 0 0 0 0 0 0 0 0 0 0 0 0 0 0 0 0 0 0 0 0 0 0 0 0 0
10 7 4 3 2 1 0 0 0 0 0 0 0 0 0 0 0 0 0 0 0 0 0 0 0 0 0 0 0 0 0 0 0 0 0 0 0 0 0 0 0 0 0
8 6 2 1 1 0 0 0 0 0 0 1 0 0 0 0 0 0 0 0 0 0 0 0 0 0 0 0 0 0 0 0 0 0 0 0 0 0 0 0 0 0 0
5 4 2 1 0 0 0 0 0 0 0 0 0 0 0 0 0 0 0 0 0 0 0 0 0 0 0 0 0 0 0 0 0 0 0 0 0 0 0 0 0 0 0
2 3 2 1 0 0 0 0 0 0 0 0 0 0 0 0 0 0 0 0 0 0 0 0 0 0 0 0 0 0 0 0 0 0 0 0 0 0 0 0 0 0 0
2 3 2 1 0 0 0 0 0 0 0 0 0 0 0 0 0 0 0 0 0 0 0 0 0 0 0 0 0 0 0 0 0 0 0 0 0 0 0 0 0 0 0
2 2 2 1 0 0 0 0 0 0 0 0 0 0 0 0 0 0 0 0 0 0 0 0 0 0 0 0 0 0 0 0 0 0 0 0 0 0 0 0 0 0 0
1 1 1 1 0 0 0 0 0 0 0 0 0 0 0 0 0 0 0 0 0 0 0 0 0 0 0 0 0 0 0 0 0 0 0 0 0 0 0 0 0 0 0
0 0 0 0 0 0 0 0 0 0 0 0 0 0 0 0 0 0 0 0 0 0 0 0 0 0 0 0 0 0 0 0 0 0 0 0 0 0 0 0 0 0 0
1 1 1 0 0 0 0 0 0 0 0 0 0 0 0 0 0 0 0 0 0 0 0 0 0 0 0 0 0 0 0 0 0 0 0 0 0 0 0 0 0 0 0
2 2 2 1 1 1 0 0 0 0 0 0 0 0 0 0 0 0 0 0 0 0 0 0 0 0 0 0 0 0 0 0 0 0 0 0 0 0 0 0 0 0 0
2 3 2 2 2 2 1 1 1 0 0 0 0 0 0 0 0 0 0 0 0 0 0 0 0 0 0 0 0 0 0 0 0 0 0 0 0 0 0 0 0 0 0
2 2 2 3 3 3 3 3 2 1 0 0 0 0 0 0 0 0 0 0 0 0 0 0 0 0 0 0 0 0 0 0 0 0 0 0 0 0 0 0 0 0 0
1 1 1 3 3 4 4 3 2 1 0 0 0 0 0 0 0 0 0 0 0 0 0 0 0 0 0 0 0 0 0 0 0 0 0 0 0 0 0 0 0 0 0
0 0 0 1 2 5 5 4 3 2 0 0 0 0 0 0 0 0 0 0 0 0 0 0 0 0 0 0 0 0 0 0 0 0 0 0 0 0 0 0 0 0 0
0 0 0 0 1 4 6 5 3 1 0 0 0 0 0 0 0 0 0 0 0 0 0 0 0 0 0 0 0 0 0 0 0 0 0 0 0 0 0 0 0 0 0
0 0 0 0 1 3 5 6 4 2 0 0 0 0 0 0 0 0 0 0 0 0 0 0 0 0 0 0 0 0 0 0 0 0 0 0 0 0 0 0 0 0 0
0 0 0 0 1 3 5 6 6 4 2 1 0 0 0 0 0 0 0 0 0 0 0 0 0 0 0 0 0 0 0 0 0 0 0 0 0 0 0 0 0 0 0
0 0 0 0 1 2 4 6 6 4 3 2 1 1 1 0 0 0 0 0 0 0 0 0 0 0 0 0 0 0 0 0 0 0 0 0 0 0 0 0 0 0 0
0 0 0 0 0 1 3 5 4 4 3 3 2 2 2 1 0 0 0 0 0 0 0 0 0 0 0 0 0 0 0 0 0 0 0 0 0 0 0 0 0 0 0
Wind_Speed
7 9 17 17 16 16 15 14 14 13 13 14 15 15 16 16 17 17 17 16 17 17 17 17 17 17 17 16 16 16 16 16 16 16 15 14 15 15 15 14 13 9 16
10 11 17 17 17 16 15 14 14 13 13 13 14 15 16 16 17 17 17 17 17 17 17 17 17 16 16 15 15 14 14 14 14 14 13 10 12 14 15 14 13 10 15
13 12 14 17 17 16 16 15 14 13 13 13 14 15 15 16 16 16 16 17 16 16 16 16 16 15 14 14 13 13 13 13 13 12 10 6 7 13 14 14 14 14 14
12 11 12 16 17 16 16 15 14 14 13 13 14 14 15 16 16 16 16 16 16 16 15 15 14 14 13 13 12 12 12 12 11 10 5 5 5 11 13 13 13 13 13
10 9 12 17 17 17 16 15 14 13 13 14 14 14 15 15 15 15 15 15 15 14 14 14 13 12 12 12 12 12 12 11 11 8 5 5 4 9 11 12 12 11 11
9 8 11 16 17 16 16 15 14 13 14 14 14 14 15 15 15 15 15 14 14 13 13 13 12 12 11 11 11 11 11 10 8 4 4 4 3 8 10 10 10 10 10
9 8 10 15 16 16 15 15 14 14 13 14 14 14 14 15 15 14 14 13 13 12 12 12 11 11 10 10 10 10 9 8 5 4 3 3 3 7 8 8 9 9 9
11 9 10 14 14 14 14 15 14 13 13 13 14 14 14 14 14 14 13 12 12 11 11 10 10 9 9 9 9 8 7 5 5 3 2 2 3 5 7 7 7 7 7
10 9 7 8 9 12 12 13 13 13 12 12 13 13 12 12 13 13 12 11 11 10 9 8 8 8 8 7 7 6 5 5 3 1 1 1 1 3 5 5 5 5 6
8 8 7 7 6 6 7 10 11 11 10 11 11 10 10 10 10 11 9 9 9 9 8 7 6 6 6 5 5 5 5 4 2 1 1 1 1 1 2 3 3 4 4
9 7 7 7 6 6 6 7 8 9 10 9 8 10 8 5 5 5 6 7 7 7 6 5 4 4 4 4 4 4 3 1 0 0 1 3 2 1 0 1 1 2 2
12 10 8 7 7 6 6 5 4 4 5 5 4 5 4 4 3 4 5 6 6 5 4 3 3 3 3 2 2 3 1 0 0 1 2 5 4 3 2 1 1 1 0
11 10 9 8 7 7 5 5 3 3 3 4 5 5 4 3 2 2 2 2 2 2 1 1 2 1 1 1 1 1 0 0 1 2 3 6 6 5 4 3 3 3 3
11 11 10 9 8 7 5 5 4 4 4 4 4 5 4 3 3 2 2 2 2 1 1 1 1 0 0 0 0 1 1 1 1 2 3 6 7 7 6 5 4 4 4
11 11 10 9 8 7 6 5 5 5 5 5 4 5 5 4 4 3 2 2 2 2 2 2 1 1 1 1 1 1 2 2 2 2 2 6 6 7 7 6 6 5 4
11 11 10 11 9 7 6 6 5 5 5 4 5 6 6 4 4 4 3 3 3 3 3 2 2 2 1 1 2 2 2 2 2 3 2 3 5 6 6 7 6 5 4
10 10 10 11 10 9 8 7 5 5 5 5 5 6 6 5 5 4 4 4 3 3 3 2 2 1 1 1 2 2 2 2 2 2 2 2 2 4 5 6 5 4 4
8 9 11 10 10 10 8 7 5 5 6 5 5 5 7 7 6 5 4 4 4 3 3 2 2 2 2 1 1 1 1 1 2 2 1 1 1 1 2 3 3 3 3
9 9 10 9 10 10 8 6 5 4 5 4 5 5 6 7 7 6 5 4 4 3 3 3 2 2 2 2 2 1 1 1 2 1 1 1 1 1 1 1 1 2 2
7 7 9 9 9 8 6 5 4 4 4 4 5 5 6 6 7 6 4 4 4 3 3 3 3 2 2 2 1 1 1 1 1 1 1 1 1 1 1 1 1 2 4
5 7 8 9 9 7 5 5 5 5 5 4 5 6 7 6 7 6 5 4 5 4 4 4 3 3 2 2 1 1 1 1 1 1 1 2 2 2 3 3 2 2 2
5 7 7 9 9 9 7 6 4 4 4 4 3 4 5 6 6 6 6 5 5 4 4 4 3 2 2 2 2 1 1 2 1 2 2 2 3 3 3 4 3 3 2
6 7 7 8 9 10 9 5 3 3 2 3 4 4 5 5 6 5 6 5 5 4 4 4 4 4 3 2 2 2 2 3 1 1 2 3 3 3 3 3 4 3 3
6 5 6 7 8 8 8 8 8 7 7 7 5 5 5 5 6 6 5 6 5 4 4 4 3 3 3 2 1 2 2 2 2 1 0 1 2 3 2 2 3 3 3
4 3 4 6 7 7 7 9 9 7 6 4 4 5 5 4 4 5 5 5 5 4 4 4 4 3 3 3 3 2 2 2 2 3 3 1 1 1 1 1 1 2 3
3 2 3 4 5 5 7 7 8 8 7 6 6 6 5 3 3 4 4 4 4 3 4 4 3 4 2 2 2 2 2 2 2 3 3 2 2 1 1 1 1 1 2
Wind_Direction
157 154 148 142 137 133 130 125 120 119 120 119 119 120 121 119 117 115 112 110 108 107 106 104 101 98 95 91 87 84 81 78 75 72 69 68 70 70 70 67 63 58 66
145 150 147 143 139 136 131 125 122 121 122 122 122 122 122 120 118 116 113 111 110 109 107 104 101 98 96 94 91 88 86 83 79 74 66 60 68 71 71 70 68 66 66
141 146 145 143 140 138 132 127 125 126 126 126 126 125 123 120 117 115 114 113 111 109 106 104 101 99 97 94 92 91 90 87 83 75 64 48 63 72 70 69 67 66 64
140 142 144 143 142 139 135 131 130 130 130 129 129 128 124 121 119 117 115 114 112 110 107 105 102 100 98 94 91 92 93 90 85 75 55 41 46 70 69 68 67 65 62
136 138 144 144 143 141 138 136 134 134 133 131 131 129 126 124 122 119 117 115 113 111 109 107 103 99 97 95 93 95 95 91 82 69 53 42 41 71 70 67 66 65 63
132 135 145 144 145 144 143 140 138 137 136 134 132 130 129 128 125 122 120 118 116 115 114 110 105 100 95 94 94 96 97 91 77 61 50 40 39 72 73 70 67 66 63
136 139 145 145 148 148 148 145 143 141 139 137 136 134 132 130 127 126 125 123 122 121 119 115 109 103 98 96 95 95 98 95 83 65 50 36 48 71 73 72 66 64 61
143 142 146 147 149 152 153 150 149 146 143 141 140 138 137 134 133 132 131 130 129 126 122 117 111 105 100 97 95 94 96 93 86 70 50 29 62 68 70 70 66 63 59
143 141 142 144 149 154 155 154 153 151 147 146 144 141 138 138 139 139 138 138 135 131 126 121 113 106 100 97 95 92 90 91 89 75 42 10 55 66 70 70 66 61 56
144 144 143 142 143 146 152 156 154 152 150 148 143 137 137 141 143 143 142 142 140 137 133 128 119 107 96 91 90 87 87 87 83 52 345 284 286 65 72 71 67 59 53
158 154 150 148 146 145 150 156 152 152 153 148 142 141 136 133 134 137 143 144 146 146 144 139 126 102 77 65 68 76 79 84 125 276 273 270 266 269 30 75 75 57 48
173 170 163 158 155 153 157 146 145 145 146 141 141 142 134 134 140 143 153 156 157 154 152 147 118 83 68 51 43 57 62 54 252 261 266 273 271 272 264 255 232 257 311
177 175 172 166 162 160 153 151 149 142 141 144 149 148 141 137 140 139 143 152 149 143 123 100 71 70 76 67 29 15 311 268 259 267 273 277 275 273 268 264 257 254 260
179 182 175 171 168 166 158 160 160 161 160 164 165 159 154 154 160 165 167 167 162 155 163 157 149 166 308 293 258 274 280 258 253 258 268 275 273 272 272 270 265 262 265
187 182 179 175 175 171 164 168 173 176 175 174 171 172 171 172 178 179 181 181 183 179 184 188 195 214 248 282 276 254 264 263 259 259 271 278 274 272 273 274 273 270 267
189 187 183 181 177 174 176 178 180 181 178 176 182 186 183 182 184 184 188 192 197 194 194 194 199 204 231 257 280 271 263 260 255 258 258 277 278 274 271 271 275 278 281
188 188 191 187 180 181 185 187 185 184 183 188 192 190 190 189 188 188 190 199 205 195 191 188 195 190 221 235 262 269 264 259 259 263 262 260 275 278 270 269 277 292 299
190 191 196 196 187 186 187 188 187 187 188 193 190 189 195 195 191 187 193 206 199 182 179 183 182 192 216 221 245 269 267 266 269 269 269 269 268 282 292 286 289 295 301
197 194 195 195 188 187 186 186 187 186 190 192 190 192 196 196 192 189 196 202 184 179 185 187 179 182 203 220 236 263 271 268 283 297 294 292 279 270 273 332 354 358 344
198 199 199 193 192 183 179 177 182 192 197 192 197 201 196 195 192 190 191 190 174 176 184 184 184 186 192 195 222 287 292 292 323 328 313 330 348 359 19 37 45 41 44
194 199 202 193 192 182 182 187 189 201 201 200 204 203 196 192 188 187 187 181 178 184 186 182 173 184 194 163 140 323 325 13 44 12 13 34 36 40 54 52 52 50 38
205 209 208 202 194 191 192 191 186 179 191 199 197 195 192 187 187 190 186 184 181 177 177 177 171 168 181 167 161 165 312 329 27 41 41 49 41 45 54 52 53 53 48
219 214 213 213 206 199 192 178 163 154 154 173 191 198 197 187 187 188 184 177 175 175 183 184 181 177 184 192 189 178 195 243 286 4 47 48 47 47 44 52 54 47 46
237 227 216 213 213 205 192 188 190 196 202 201 192 190 184 183 181 181 178 176 172 169 174 183 180 176 169 191 205 217 212 185 200 259 242 64 61 53 37 42 44 44 42
250 236 224 216 214 206 198 197 199 207 212 195 175 173 177 177 176 177 178 172 170 168 172 169 164 168 176 182 185 182 205 218 211 218 243 209 164 102 67 54 51 42 37
266 242 228 216 218 208 202 200 200 201 198 186 185 184 182 172 170 171 164 161 162 161 165 162 159 163 170 175 179 184 190 202 210 216 235 216 208 178 134 86 72 53 41